ECMWFFLT1_250_rhum_051.txt.gz
RH
4 4 4 4 3 3 3 3 3 3 2 2 2 2 2 2 2 3 3 2 3 3 3 3 3 3 3 3 3 3 3 3 3 3 3 4 4 5 6 7 8 10 12 14 15 16 17 18 20 21 22 23 24 24 24 23 22 19 18 18 18 19 20
4 4 3 4 4 3 3 3 3 3 3 2 2 2 2 2 3 3 3 3 3 3 3 3 3 3 3 3 3 3 3 3 3 3 3 3 3 4 4 5 6 7 9 11 13 14 15 16 17 19 20 21 23 23 24 24 24 23 22 20 19 18 18
3 4 3 4 3 3 3 3 3 3 3 3 2 2 2 2 2 3 2 3 3 3 3 3 3 3 3 3 3 3 3 3 3 3 3 3 3 3 3 4 4 5 6 9 11 12 14 15 16 17 18 19 20 21 22 23 23 24 24 23 22 20 19
3 3 3 3 3 3 3 3 3 3 3 3 3 3 2 2 2 2 2 3 3 3 3 3 3 3 3 3 3 3 3 3 3 3 2 3 3 3 3 3 4 4 4 6 8 9 11 13 14 16 16 17 18 19 20 21 22 23 23 24 24 24 23
4 4 3 3 3 3 3 3 3 3 3 3 3 3 3 2 2 2 2 2 2 2 3 3 3 3 3 3 3 3 3 3 3 3 3 3 2 2 3 3 3 3 3 4 5 7 8 10 11 13 14 15 17 17 18 20 21 22 23 24 25 25 25
4 4 4 4 3 3 3 3 3 3 3 3 3 3 3 2 2 2 2 2 2 2 3 3 3 3 3 3 3 3 3 3 3 3 3 3 3 2 2 3 3 3 3 4 4 5 6 7 8 10 11 13 14 16 17 18 20 21 22 23 24 26 26
4 4 4 4 4 4 3 3 3 3 3 3 3 3 3 3 3 2 2 2 3 2 2 3 3 3 3 3 3 3 3 3 3 3 3 3 3 3 2 3 3 2 3 3 4 4 5 5 6 7 8 10 11 13 14 16 18 20 21 23 25 27 27
4 4 4 4 4 4 4 3 3 3 3 3 3 3 3 3 3 3 3 2 2 2 2 3 2 3 3 3 3 3 3 3 3 3 3 3 3 3 3 3 3 3 3 3 3 4 4 4 5 5 6 7 8 10 11 13 15 18 20 22 24 26 27
5 4 4 4 4 4 4 4 3 3 3 3 3 3 3 3 3 3 3 3 2 2 2 2 2 3 3 3 3 3 3 3 3 3 3 3 3 3 3 3 3 3 3 3 3 3 3 4 4 4 5 5 6 7 8 10 11 13 16 19 20 22 24
5 5 4 4 4 4 4 4 4 4 3 3 3 3 3 3 3 3 3 3 3 3 2 2 2 2 3 3 3 3 3 3 3 3 3 3 3 3 3 3 3 3 3 3 3 3 3 3 4 4 4 5 5 5 6 7 8 9 11 13 15 18 20
4 5 5 4 5 4 4 4 4 4 4 3 3 3 3 3 3 3 4 3 3 3 3 2 2 2 2 3 3 3 3 3 3 3 3 3 3 3 3 3 3 3 3 3 3 3 3 3 3 4 4 4 4 5 5 5 6 7 7 9 10 12 15
4 4 5 5 5 5 4 4 4 4 4 4 3 3 3 3 3 3 3 4 3 3 3 3 3 2 2 2 3 3 3 3 3 3 3 3 3 3 3 3 3 3 3 3 3 3 3 3 3 3 3 4 4 4 5 5 5 5 5 6 7 8 10
5 4 5 5 5 5 5 4 4 4 4 4 4 4 3 3 3 3 3 3 3 4 3 3 3 3 2 2 2 3 3 3 3 3 3 3 3 3 3 3 3 3 3 3 3 3 3 3 3 3 3 3 3 4 4 4 5 5 5 5 5 6 7
5 5 5 5 5 5 5 5 5 4 4 4 4 4 4 3 3 3 3 3 3 4 4 3 3 3 3 3 2 2 3 3 3 4 3 3 3 3 3 3 3 3 3 3 3 3 3 3 3 3 3 3 3 3 3 4 4 4 5 5 5 5 5
5 5 5 5 5 5 5 5 6 5 4 4 4 4 4 4 4 3 3 3 3 3 4 4 4 3 3 3 3 2 2 2 3 3 3 4 4 3 3 3 3 3 3 3 3 3 3 3 3 3 3 3 3 3 3 3 3 4 4 4 5 5 5
6 5 5 5 5 5 5 5 5 5 5 4 4 4 4 4 4 4 3 3 3 3 3 4 4 4 4 4 3 3 3 2 2 3 3 4 4 4 4 4 3 3 3 3 3 3 3 3 3 3 3 3 3 3 3 3 3 3 3 4 4 5 5
6 6 6 5 5 5 5 5 5 5 5 5 4 4 4 4 4 4 4 4 3 3 3 3 3 4 4 4 4 3 3 3 2 2 2 3 3 4 4 4 3 4 3 3 3 3 3 4 3 3 3 3 3 3 3 4 3 3 3 3 3 4 4
6 6 6 6 5 5 5 5 5 5 5 6 6 5 4 4 4 4 4 4 4 3 3 3 3 3 4 4 4 4 4 3 3 3 2 2 3 3 4 4 4 4 4 4 4 4 4 4 3 4 4 3 4 3 3 3 3 3 4 3 3 3 3
6 6 6 6 6 5 5 5 5 5 5 6 6 6 5 4 4 4 4 4 4 4 4 3 3 3 3 4 4 4 4 4 3 3 3 3 2 2 3 3 4 4 5 4 4 4 4 4 4 4 4 4 4 4 4 4 3 3 3 3 3 3 3
6 5 6 6 6 6 5 5 5 5 5 5 5 6 6 6 5 4 4 4 4 4 4 4 3 3 3 4 4 4 4 4 4 4 4 3 3 3 3 3 3 4 5 5 5 5 4 4 4 4 4 4 4 4 4 4 4 4 3 3 3 3 3
6 6 6 6 6 7 6 5 5 5 5 5 5 5 6 7 6 5 4 4 4 4 4 4 4 4 3 3 4 4 4 4 4 4 4 4 4 3 3 3 3 3 3 4 4 5 5 5 5 4 4 4 4 4 4 4 4 4 4 4 4 3 3
7 6 6 6 6 6 6 6 5 5 5 5 5 5 5 6 7 7 6 5 5 5 4 4 4 4 4 4 4 4 4 4 4 4 4 4 5 4 4 4 4 3 3 3 3 3 4 4 5 5 5 5 4 4 4 4 4 4 4 4 4 4 4
8 7 6 6 6 6 7 6 6 6 5 5 5 5 5 5 6 7 7 6 5 5 5 4 4 4 4 4 4 4 4 4 4 4 4 4 4 5 5 5 5 4 4 3 3 3 3 3 4 4 4 5 5 5 5 5 5 4 4 4 4 4 4
8 8 7 6 6 6 7 7 6 6 6 6 6 5 5 5 5 6 7 7 6 5 5 5 5 4 4 4 4 4 4 4 4 4 4 4 4 5 5 5 5 5 5 4 4 4 3 3 3 3 3 4 4 4 5 5 5 5 5 5 5 5 4
9 8 7 7 6 6 6 7 7 6 6 6 6 6 6 6 6 6 6 7 8 7 6 5 5 5 5 4 4 4 4 4 4 4 4 4 4 4 5 5 5 5 5 5 5 5 4 4 4 3 3 3 3 3 4 4 4 5 5 5 5 5 5
9 9 9 8 7 6 6 6 7 7 6 6 6 6 6 6 6 6 6 7 8 8 8 6 5 5 5 5 5 4 4 4 4 4 4 5 4 4 4 4 5 5 5 5 5 5 5 5 4 4 4 4 4 4 3 3 3 3 4 4 4 4 5
9 9 10 9 8 7 6 6 7 7 7 6 6 6 7 6 6 7 7 7 7 8 9 8 7 6 5 5 5 5 4 4 4 4 4 5 5 5 4 4 5 5 5 5 5 5 5 5 5 5 5 5 5 4 4 4 4 4 4 3 3 3 3
10 9 9 10 9 8 7 7 6 6 7 7 6 6 6 7 7 7 7 7 8 8 9 9 9 8 7 5 5 5 5 5 4 4 4 4 5 5 5 5 5 5 5 5 5 5 5 5 5 5 5 5 5 5 5 4 4 4 4 4 4 4 4
12 9 9 10 10 9 8 8 7 7 7 7 7 6 6 7 7 7 7 7 8 8 9 9 10 10 9 8 6 5 5 5 5 5 5 4 4 5 5 5 5 5 5 5 5 5 5 5 5 5 5 5 5 5 5 5 5 5 5 5 4 4 4
14 10 9 9 10 10 9 9 8 8 7 7 7 7 6 6 7 8 8 7 8 8 9 10 11 11 11 10 9 7 6 5 5 5 5 5 5 5 5 5 5 5 5 5 5 5 5 5 5 5 5 5 5 5 5 5 5 5 5 5 5 4 4
17 12 10 9 10 10 9 9 8 8 8 8 7 7 7 6 7 7 8 8 8 8 9 10 11 12 12 11 11 10 8 6 5 5 5 5 5 5 5 5 5 5 5 5 5 5 5 5 5 5 5 5 5 5 5 5 5 5 5 5 5 4 4
17 13 11 10 10 9 9 9 8 8 8 8 8 8 7 7 6 7 8 8 8 8 8 9 10 11 12 13 12 11 11 9 8 6 6 6 6 5 5 5 5 5 5 5 5 5 5 5 5 5 5 5 5 5 5 5 5 6 5 5 5 5 4
19 14 11 10 10 10 9 9 8 8 8 8 8 8 8 7 7 7 7 8 9 9 9 8 9 10 11 13 13 13 12 12 11 9 7 6 6 6 6 5 5 5 5 5 5 5 5 5 5 5 5 5 5 5 5 5 5 5 5 5 5 5 5
24 17 12 11 11 11 10 9 8 8 9 8 7 8 8 8 7 7 7 8 9 9 9 9 9 9 10 11 13 14 13 13 12 11 10 8 7 6 6 6 6 5 5 5 5 5 5 5 5 5 5 5 5 6 5 5 5 5 5 5 5 5 5
30 21 14 11 11 11 12 11 9 8 8 9 8 8 8 8 8 7 7 7 8 9 10 10 9 9 9 10 11 13 14 14 14 13 12 11 9 8 7 6 6 6 5 5 5 5 5 5 5 5 5 5 5 6 6 6 6 6 6 6 6 6 6
32 24 16 12 12 12 12 12 10 9 8 8 8 8 8 8 8 8 8 7 7 8 9 10 10 10 10 10 10 11 13 15 15 15 14 13 12 11 9 7 7 7 6 6 5 5 5 5 5 5 5 5 5 6 6 6 6 6 6 6 6 6 6

ECMWFFLT1_250_rhum_054.txt.gz
RH
4 4 4 4 4 3 3 3 3 3 3 3 4 3 3 4 3 3 3 3 3 3 3 3 3 3 3 3 3 3 2 3 3 3 3 3 4 4 5 7 9 11 13 14 14 12 12 14 15 16 18 20 22 25 27 27 27 25 23 21 20 22 29
4 4 4 4 4 3 3 4 3 3 3 3 3 3 3 3 3 3 3 3 3 3 3 3 3 3 3 3 3 3 3 3 3 3 3 3 3 4 4 4 6 8 10 12 14 13 12 13 13 15 16 17 19 21 23 25 27 28 27 26 24 22 20
4 4 4 4 4 4 3 4 3 3 3 3 3 3 3 3 3 3 3 3 3 3 3 3 3 3 3 3 3 3 3 3 3 3 3 3 3 3 4 4 4 5 6 9 11 12 12 12 12 14 15 16 17 18 20 22 24 26 27 28 27 26 25
5 4 4 4 4 4 3 3 4 3 3 3 3 3 3 3 3 3 3 3 3 3 3 3 3 3 3 3 3 3 3 3 3 3 2 3 3 3 3 3 3 4 4 5 7 9 11 11 11 12 14 15 15 16 18 19 20 22 24 26 27 27 28
5 4 4 4 4 4 4 3 3 3 3 3 3 3 3 3 3 3 3 3 3 3 3 3 3 3 3 3 3 3 3 3 3 3 3 3 3 3 3 3 3 3 3 4 5 6 7 9 10 11 12 13 15 15 16 17 18 19 21 22 24 25 27
5 5 4 4 4 4 4 4 4 3 3 3 3 3 3 3 3 3 3 3 3 3 3 3 3 3 3 3 2 2 2 3 3 3 3 3 3 2 2 2 2 3 3 3 4 5 5 6 7 9 10 11 13 14 14 16 17 18 19 20 22 23 25
5 5 5 4 4 4 4 4 4 4 3 3 3 3 3 3 3 3 3 3 3 3 3 3 3 3 3 3 3 3 2 3 3 3 3 3 3 3 2 3 2 2 3 3 3 4 5 5 6 6 7 9 10 11 13 14 15 16 17 18 20 22 23
5 5 5 5 4 4 4 4 4 4 4 3 3 3 3 3 3 3 3 3 3 3 3 3 3 3 3 3 3 3 3 3 3 3 3 3 3 3 3 3 3 3 3 2 3 4 4 4 5 5 6 6 7 9 10 11 13 14 15 17 19 20 22
5 5 5 5 5 4 4 4 4 4 4 4 4 3 3 3 3 3 3 3 3 3 3 3 3 3 3 3 3 3 3 3 3 3 3 3 3 3 3 3 3 3 3 3 3 3 3 4 4 5 5 5 5 6 7 9 10 12 13 15 16 18 20
6 6 5 5 5 5 4 4 4 4 4 4 4 4 3 3 3 3 3 3 3 3 3 3 3 3 3 3 3 3 3 3 3 3 3 3 3 3 3 3 3 3 3 3 3 3 3 3 4 4 5 5 5 5 5 6 7 9 11 12 14 15 17
6 6 6 5 5 5 5 4 4 4 4 4 4 4 4 3 3 3 3 3 3 3 3 3 3 3 3 3 3 3 3 3 3 3 3 3 3 3 3 2 3 3 3 3 3 3 3 3 3 4 4 4 5 5 4 5 5 6 7 9 11 12 14
7 6 6 6 5 5 5 5 5 4 5 5 4 4 4 4 4 3 3 3 3 3 3 3 3 3 3 3 4 4 3 3 3 3 3 3 3 3 3 3 3 3 3 3 3 3 3 3 3 4 4 4 4 4 4 4 4 4 5 6 8 9 11
9 6 6 6 6 5 5 5 5 5 5 5 5 4 4 4 4 4 4 3 3 3 3 3 3 3 3 3 3 4 4 3 3 3 3 3 3 3 3 3 3 3 3 3 3 3 3 3 3 3 4 4 4 4 4 4 4 4 4 4 5 6 8
11 7 6 7 6 6 5 5 5 5 5 5 5 5 5 4 4 4 4 4 4 3 3 3 3 3 3 3 3 3 4 4 3 3 3 3 3 3 3 3 3 3 3 3 3 3 3 3 3 3 3 4 4 4 4 3 3 4 4 4 4 4 5
14 9 7 7 7 6 6 5 5 5 5 5 5 5 5 5 5 5 4 4 4 4 4 3 4 4 3 3 3 3 4 4 4 4 3 3 3 3 3 3 3 3 3 3 3 3 3 3 3 3 3 3 3 3 4 4 4 3 3 3 4 4 4
17 12 8 7 7 7 6 6 5 5 5 5 5 5 6 5 5 6 5 4 4 4 4 4 3 4 4 4 3 4 4 4 4 4 4 3 3 3 3 2 3 3 3 3 3 3 3 3 3 3 3 3 3 4 4 4 4 4 3 3 3 4 4
19 15 10 7 7 7 7 6 6 6 5 5 5 5 5 6 6 6 6 5 5 4 4 4 4 4 4 4 4 4 4 4 4 4 4 4 3 3 3 2 2 3 3 3 3 3 3 3 3 3 3 3 3 4 4 4 4 3 4 4 4 4 4
19 17 12 8 7 7 7 7 6 6 6 5 5 5 5 5 6 6 6 6 6 5 4 4 4 4 4 4 4 4 4 4 4 4 4 4 4 4 3 3 3 3 3 3 3 3 3 3 3 3 3 3 4 3 3 4 4 4 4 4 4 4 4
19 20 16 10 7 7 7 7 7 6 6 6 5 5 5 5 6 6 6 6 6 7 6 5 4 4 4 4 4 4 4 4 4 4 4 4 4 4 4 4 3 3 3 3 3 3 3 3 4 4 3 3 4 4 4 4 4 4 4 4 4 4 4
18 21 19 13 9 7 7 7 7 6 6 6 6 5 5 5 5 6 6 6 6 7 7 6 5 4 4 4 4 4 4 4 4 4 4 4 4 4 4 5 4 4 3 3 3 3 3 3 3 4 4 4 4 4 4 4 4 4 4 4 4 4 4
17 20 21 17 11 8 7 7 7 7 6 6 6 6 5 5 5 5 6 6 6 6 7 7 6 5 4 4 4 4 4 4 4 4 4 4 4 4 4 5 5 5 4 3 3 3 3 3 3 4 4 4 4 4 3 4 4 3 4 4 4 4 4
16 19 21 19 14 10 8 8 7 7 7 6 6 6 5 5 5 5 6 6 6 6 6 7 7 7 6 5 4 4 4 4 4 4 4 4 4 4 4 5 5 5 5 4 3 3 3 3 3 4 4 4 4 4 4 4 4 3 3 4 3 4 4
16 18 21 21 16 12 9 8 8 7 7 7 6 6 6 6 5 5 5 6 6 6 6 6 7 8 7 6 5 4 5 5 4 4 4 4 4 4 4 4 5 5 5 5 4 4 3 3 3 3 4 4 4 4 4 4 4 4 4 4 4 4 4
15 18 21 21 19 14 10 9 9 8 7 7 6 6 6 6 6 5 5 6 6 6 6 6 6 7 8 8 7 5 5 5 5 5 4 4 4 4 4 4 4 5 5 5 5 5 4 3 3 3 3 3 4 4 5 5 5 5 5 5 5 4 4
15 17 20 21 20 15 11 10 9 8 8 7 7 6 6 6 6 6 6 6 6 6 6 6 6 6 7 8 8 8 6 5 5 5 5 5 5 4 4 4 4 4 4 4 4 5 5 4 4 3 3 3 3 4 5 5 5 5 5 5 5 5 5
16 17 19 21 21 17 12 10 10 9 9 8 7 7 6 6 6 6 6 6 6 6 6 6 6 6 6 7 9 9 8 7 6 5 5 5 5 5 5 5 5 4 4 4 4 4 5 5 5 5 4 4 3 3 4 4 5 5 5 5 5 5 5
17 17 18 21 22 19 14 10 10 10 9 8 8 7 6 6 6 7 6 6 6 6 6 6 6 7 6 7 8 9 10 9 8 6 6 5 6 6 5 5 5 5 4 4 4 4 4 4 5 5 5 5 5 4 3 3 4 4 5 5 5 6 6
17 17 17 20 22 20 15 12 10 10 9 8 8 8 7 7 6 7 7 7 6 6 6 6 7 7 7 7 7 8 9 10 10 9 7 6 6 6 6 5 5 5 5 5 4 4 4 4 5 5 5 5 6 6 5 5 4 4 4 4 5 5 5
18 17 17 19 22 21 16 12 11 11 11 9 8 8 8 8 7 7 7 7 7 6 6 6 7 7 7 7 7 8 9 10 11 11 10 8 7 6 6 6 6 5 5 5 5 5 5 5 5 5 5 5 6 6 6 6 6 5 5 4 4 4 4
19 18 18 19 22 22 18 13 11 11 12 11 9 7 7 8 8 7 7 7 7 7 6 6 7 7 7 7 7 7 8 9 10 11 11 11 9 8 7 6 6 6 5 5 5 5 5 5 5 5 5 5 5 5 6 6 6 6 6 6 6 5 5
19 19 19 19 22 24 21 15 11 10 12 13 11 9 8 8 8 7 7 7 7 7 7 7 7 7 8 7 7 7 7 8 9 11 12 12 12 10 9 7 7 7 6 5 5 5 5 5 5 5 5 5 5 5 5 5 6 6 6 7 7 6 6
19 20 20 20 22 25 24 18 12 10 10 12 12 11 10 9 9 8 7 7 7 8 8 7 7 7 7 8 8 7 7 7 8 10 11 12 13 13 12 10 8 7 7 6 6 6 5 5 5 5 6 6 5 6 6 6 6 6 6 6 6 6 7
20 20 20 20 22 26 26 21 14 10 9 11 12 11 10 10 10 9 8 8 8 8 8 8 8 7 7 8 8 8 8 7 8 9 10 11 12 13 13 12 11 9 7 7 7 6 6 6 6 6 6 6 6 6 6 6 6 6 6 6 6 6 6
22 22 21 20 22 26 28 24 17 11 9 10 11 12 11 10 10 10 9 8 8 8 8 8 8 8 7 8 8 9 9 8 7 8 9 10 12 13 13 13 13 12 10 8 7 7 7 6 6 6 6 6 6 6 6 6 6 6 6 6 6 6 6
24 25 24 22 23 26 29 27 20 14 10 9 11 12 12 12 11 10 10 9 9 8 8 9 9 9 8 8 8 9 10 9 9 8 8 9 11 12 13 13 13 13 13 11 9 7 7 7 6 6 6 6 6 6 6 6 6 6 6 6 6 6 6
26 27 26 25 25 29 33 33 26 18 13 11 11 12 13 13 12 11 11 10 9 9 9 9 9 9 9 8 8 8 9 10 10 9 8 9 10 11 13 14 14 14 14 13 12 10 8 7 7 7 6 6 6 6 6 6 6 6 6 6 6 6 6

ECMWFFLT1_250_rhum_057.txt.gz
RH
11 9 7 5 5 4 4 4 4 4 4 4 4 3 3 4 3 3 4 3 3 3 3 3 3 3 3 3 3 3 3 3 3 4 4 4 5 6 8 11 14 17 19 20 20 19 19 20 20 19 16 14 14 14 14 15 16 17 18 19 22 31 50
11 11 9 6 5 5 4 4 4 4 4 4 4 4 3 4 4 4 4 3 4 3 3 3 3 3 3 3 3 3 3 3 3 3 4 4 4 4 6 7 9 12 15 18 19 19 19 18 18 19 19 18 16 14 14 14 15 16 17 19 21 21 24
11 11 11 8 6 5 5 5 4 4 4 4 4 4 4 3 3 4 4 3 4 3 3 3 3 3 3 3 3 3 3 3 3 3 3 4 4 4 4 5 6 7 9 13 15 17 18 18 18 18 18 19 19 17 15 14 14 15 16 17 20 22 23
11 11 12 10 7 5 5 5 5 4 4 4 4 4 4 4 3 4 4 4 4 3 3 3 3 3 3 3 3 3 3 3 3 4 3 3 3 4 4 4 4 5 6 8 11 13 15 16 16 17 17 17 18 18 18 16 15 14 14 16 17 19 22
11 11 12 12 9 6 5 5 5 5 4 4 4 4 4 4 4 4 4 4 3 3 4 3 3 4 3 4 3 3 3 3 3 3 3 4 4 3 4 4 4 4 5 5 6 8 11 12 13 15 16 16 16 17 19 18 17 16 14 15 15 17 19
11 11 11 12 11 7 6 5 5 5 5 4 4 4 4 4 4 4 3 4 4 3 3 3 3 4 3 4 4 3 3 3 3 3 3 3 4 3 3 4 3 4 4 4 5 5 6 8 9 10 12 13 13 14 16 18 18 17 17 16 15 16 17
11 11 12 13 12 9 6 5 5 5 5 5 4 4 4 4 4 4 4 4 4 3 3 3 3 4 4 4 4 4 3 3 3 3 3 3 3 3 3 3 3 4 3 4 4 5 5 5 6 6 7 9 10 11 12 14 16 17 17 17 17 17 17
11 11 11 13 13 11 8 6 5 5 5 5 5 4 4 4 4 4 4 4 4 3 4 3 3 3 4 4 4 4 4 4 3 3 3 3 3 3 3 3 4 3 3 4 3 4 4 4 5 5 5 5 6 7 8 10 12 15 16 17 17 18 18
12 11 11 12 14 13 10 7 5 5 5 5 5 4 4 4 4 4 4 4 4 4 3 3 4 3 3 3 4 4 4 4 4 3 3 3 3 3 3 3 4 4 4 4 4 4 4 4 4 5 5 5 4 4 5 6 7 10 13 15 16 17 18
13 12 11 12 14 14 12 8 6 6 5 5 5 5 4 4 4 4 5 4 4 4 4 4 4 3 3 3 3 3 4 4 4 4 3 3 3 3 3 3 3 3 3 4 4 4 4 4 4 4 4 5 4 4 3 4 4 5 7 10 12 14 15
13 12 11 11 13 14 13 10 7 6 5 5 5 5 5 4 4 4 4 5 4 4 4 4 4 3 3 4 3 3 3 3 4 4 3 4 3 3 3 3 3 3 3 3 3 4 4 4 4 4 4 4 4 4 4 3 3 3 4 5 7 9 12
14 13 12 11 12 14 14 12 9 7 6 5 5 5 5 5 5 4 4 5 5 4 4 4 4 4 4 4 4 3 3 3 3 4 3 3 4 4 3 3 3 3 3 3 3 3 4 4 4 4 4 4 4 4 4 4 3 3 3 3 4 5 7
14 13 12 12 12 14 15 13 11 8 6 6 5 5 5 5 5 5 4 4 4 4 5 4 4 4 4 4 4 3 4 4 3 3 4 3 3 3 4 3 3 3 3 3 3 3 3 4 4 4 4 4 5 4 4 4 3 3 3 3 4 4 4
15 14 13 12 12 13 15 15 12 9 7 6 5 5 5 5 5 5 4 4 4 4 5 4 5 4 4 4 4 4 4 3 4 4 3 4 3 3 3 3 3 3 3 3 3 3 3 3 3 4 4 4 4 5 5 4 4 4 3 3 4 4 4
15 14 13 12 12 13 15 16 14 11 8 6 6 5 5 5 5 5 5 4 4 4 4 4 5 5 4 4 4 4 4 3 4 4 3 3 3 3 3 3 3 4 3 4 4 3 3 3 3 4 4 4 4 4 5 5 4 4 4 3 3 3 4
15 15 13 13 12 12 15 16 16 13 10 7 6 5 5 5 5 5 6 5 4 4 4 4 5 5 5 5 4 4 4 4 4 4 4 3 3 3 3 3 3 4 3 4 4 4 3 3 3 4 4 4 4 4 4 4 4 4 4 4 3 3 4
15 15 14 13 13 12 14 16 17 15 11 8 7 6 5 5 5 5 5 5 5 5 4 4 5 5 5 5 5 4 4 4 4 4 3 3 3 3 3 3 3 4 4 4 4 4 4 3 3 4 4 3 4 4 4 4 4 4 4 4 4 4 4
15 15 14 13 13 13 14 16 18 16 13 10 8 7 6 5 5 5 5 6 5 5 5 5 4 5 5 5 5 5 4 4 4 4 4 4 4 3 3 3 3 3 4 4 4 4 4 4 4 3 3 4 4 4 4 4 4 4 4 4 4 4 4
15 15 14 13 13 13 13 15 18 17 15 11 9 8 7 6 5 5 5 6 6 5 5 5 5 5 5 5 5 6 5 4 4 4 4 4 4 4 3 3 3 3 4 4 4 4 4 4 4 4 4 4 4 4 4 4 4 4 4 4 4 4 4
15 15 14 13 13 13 13 14 17 19 16 12 10 8 8 7 6 6 6 5 6 6 5 5 5 5 5 5 5 5 5 5 5 4 4 4 4 4 4 4 4 3 4 4 4 4 4 4 4 4 4 4 3 4 4 4 4 4 3 3 4 3 4
15 16 15 14 13 13 13 14 16 19 18 14 11 9 8 8 7 6 6 6 6 6 6 6 5 5 5 5 5 5 5 6 6 5 4 4 4 4 4 4 4 4 4 4 4 4 4 4 4 4 4 4 3 4 4 4 4 4 4 4 3 3 3
15 16 16 15 14 13 14 14 15 18 19 15 11 9 9 8 7 7 6 6 6 6 6 6 6 5 5 5 5 5 5 5 6 6 5 4 4 5 5 4 4 4 4 4 4 4 4 4 5 4 4 4 4 4 4 4 4 3 4 4 4 4 4
15 16 16 16 15 14 14 14 15 17 19 17 12 10 9 9 8 7 6 6 6 6 6 6 6 6 6 5 6 6 5 5 6 6 6 6 5 5 5 5 4 4 4 4 4 4 4 4 4 5 4 4 4 4 4 4 4 4 4 4 4 4 4
15 16 16 16 15 14 14 14 14 17 19 18 14 10 10 9 9 8 7 7 6 6 6 6 6 6 6 6 6 6 6 5 5 6 7 7 6 5 5 5 5 5 4 4 4 4 4 4 4 4 5 4 4 4 4 4 4 4 4 4 4 4 4
15 16 16 17 16 15 14 14 14 16 19 19 16 11 10 10 9 9 8 7 7 6 6 6 6 6 6 6 6 6 6 6 6 6 6 7 7 7 5 5 5 5 5 5 4 4 4 4 4 4 4 5 5 5 5 5 4 4 4 3 4 4 4
16 16 17 17 17 16 15 15 14 15 18 20 18 13 10 10 10 9 9 8 7 7 6 6 6 6 6 6 6 6 7 7 6 6 6 7 8 8 7 6 5 5 5 5 5 4 4 4 4 4 4 5 5 5 5 5 4 4 4 3 3 3 4
15 16 17 17 17 17 17 16 15 15 18 21 19 14 11 10 10 10 9 9 8 7 7 6 6 6 6 6 6 6 7 7 7 7 6 6 7 8 8 8 6 6 6 5 5 5 5 4 4 4 4 5 5 5 6 5 5 5 4 4 4 3 3
15 16 17 18 18 18 18 17 16 15 17 21 21 17 12 10 11 10 10 9 8 8 7 7 6 7 7 7 7 7 7 7 7 7 7 6 7 8 9 9 8 7 6 6 6 5 5 5 5 4 4 5 5 5 6 6 6 6 5 4 4 4 3
15 16 17 18 19 19 18 18 18 17 17 20 22 19 13 10 11 11 10 9 9 8 8 7 7 6 7 7 7 7 7 7 7 7 7 7 7 7 8 9 10 9 7 6 6 6 6 5 5 5 5 5 5 5 5 6 6 6 6 6 5 4 4
15 16 17 18 19 19 19 19 19 18 18 20 23 22 16 11 10 11 11 11 9 9 8 8 7 7 7 7 7 7 7 7 7 7 8 7 7 7 8 9 10 10 9 8 7 6 6 6 5 5 5 5 5 5 5 6 6 6 6 7 6 6 5
16 16 17 18 19 19 19 19 20 20 19 21 25 26 20 13 10 11 12 11 10 9 9 9 8 8 7 7 7 8 7 7 7 8 8 8 8 8 8 9 10 10 10 10 9 7 6 6 6 6 5 5 5 5 5 6 6 6 6 6 7 7 6
16 16 17 18 19 19 20 20 20 20 20 22 26 29 25 17 11 10 12 12 12 10 10 9 9 8 8 7 7 8 8 7 7 7 8 8 9 8 8 9 10 10 11 11 11 10 8 7 6 6 6 6 5 5 6 6 6 6 6 6 6 6 6
16 16 18 19 19 19 20 20 20 20 19 21 25 30 29 21 14 11 12 14 14 12 10 10 10 9 8 8 8 8 8 8 8 7 8 8 9 9 9 8 9 11 12 12 12 12 11 9 8 7 6 6 6 6 6 6 6 6 6 6 6 6 6
17 17 18 19 19 20 20 21 21 20 20 21 25 30 31 25 17 12 12 14 17 16 14 11 11 10 9 9 8 8 8 8 8 8 8 8 9 9 9 9 9 10 11 13 13 13 12 11 11 9 7 7 7 6 6 6 6 6 6 6 6 6 6
17 18 18 19 20 20 21 21 22 21 21 22 25 30 33 28 20 14 12 13 15 17 16 14 12 11 10 10 9 9 8 8 9 9 8 8 9 9 10 10 9 9 10 12 14 15 15 14 13 12 10 8 7 7 7 6 6 6 6 6 6 6 6
17 18 19 19 20 20 21 21 22 22 21 22 25 29 33 31 22 15 12 12 14 16 17 16 14 13 12 11 10 9 9 9 9 9 9 9 9 9 10 11 11 10 9 10 12 14 16 16 15 14 13 11 9 8 7 7 7 6 6 6 6 6 6

ECMWFFLT1_250_rhum_060.txt.gz
RH
8 9 9 9 9 8 8 8 7 7 8 8 7 5 4 4 4 4 3 3 3 3 3 3 3 3 3 4 4 4 3 3 4 4 4 4 4 4 4 4 4 5 7 9 11 13 16 17 19 21 22 23 24 23 23 23 23 21 17 14 13 18 28
8 9 9 9 9 8 8 8 7 7 7 8 8 6 4 4 4 4 4 3 3 3 3 3 3 3 3 3 4 4 4 4 3 4 4 4 4 4 4 4 4 4 5 6 8 10 13 15 16 18 20 22 24 25 24 23 23 23 21 18 14 12 14
8 9 9 9 9 9 9 8 8 8 7 8 8 7 5 4 4 4 4 4 3 3 3 3 3 3 3 3 4 3 4 4 3 3 4 4 4 4 4 4 4 4 5 5 6 7 9 12 14 16 17 19 21 23 25 26 24 23 23 21 18 15 12
8 9 9 9 10 9 9 9 8 8 8 8 8 8 7 5 4 4 4 4 4 4 3 3 3 3 3 3 3 3 3 4 4 4 3 4 4 4 5 4 4 4 5 5 5 5 6 8 10 12 15 16 17 19 22 25 26 25 24 23 21 19 16
9 9 9 9 10 10 9 9 9 8 8 8 8 9 9 7 4 4 4 4 4 4 3 4 3 3 3 3 3 3 3 3 4 4 4 4 4 4 4 4 5 4 4 5 5 5 4 5 7 9 11 13 15 16 18 20 23 25 25 25 23 22 20
9 9 9 10 10 10 10 10 9 9 9 9 8 8 9 8 6 4 4 4 4 4 4 3 4 3 3 3 3 3 3 3 4 4 4 4 4 4 4 4 4 5 4 4 4 5 5 4 4 5 7 9 11 13 15 16 18 21 24 25 25 24 22
9 9 9 10 10 11 10 10 10 9 9 9 8 8 9 9 8 5 4 4 4 4 4 3 4 4 3 3 3 3 3 3 4 3 4 4 4 4 4 4 4 4 5 5 4 5 5 5 5 4 4 6 7 10 13 15 16 17 19 21 23 24 24
9 9 9 10 11 11 11 10 10 10 9 9 9 9 9 9 9 6 4 4 4 4 4 3 3 4 4 4 3 3 4 3 3 4 4 4 4 4 4 4 4 4 4 5 5 5 5 5 5 5 5 4 5 6 8 11 14 15 16 17 18 21 23
9 9 9 10 11 11 11 11 11 10 10 10 9 9 9 10 10 8 5 5 4 4 4 4 4 3 4 4 4 4 4 3 4 4 4 4 4 4 4 4 4 4 4 4 5 5 5 5 4 4 4 4 4 4 5 6 9 12 13 14 15 16 18
9 9 9 10 11 12 12 11 11 11 10 10 9 9 9 10 11 9 7 5 4 4 4 4 4 4 3 4 4 4 4 3 4 3 3 4 4 4 4 5 4 4 4 4 5 5 5 5 5 4 4 4 4 4 4 4 5 6 9 11 12 14 15
9 9 9 10 11 12 12 12 11 11 11 11 10 9 9 10 11 11 8 6 5 4 4 4 4 4 4 4 4 4 4 4 4 4 4 4 4 4 4 4 5 4 4 4 4 5 5 5 5 5 5 4 4 4 4 4 4 4 5 6 8 10 12
10 9 9 10 11 12 12 12 12 11 11 11 11 10 9 10 11 12 10 7 5 5 5 4 4 4 4 4 4 4 4 4 4 4 4 4 4 4 4 4 4 4 4 5 4 4 5 5 5 5 5 5 4 4 4 4 4 4 3 4 5 6 8
10 10 10 10 11 12 12 13 12 11 11 12 11 11 10 9 11 12 11 8 6 5 5 5 4 4 4 4 4 4 4 4 4 4 4 4 4 4 4 4 4 4 4 5 5 5 4 4 4 5 5 5 5 4 4 4 4 4 4 4 4 4 5
11 10 10 10 11 12 12 13 12 11 11 12 12 12 10 10 10 12 12 10 7 5 5 5 5 5 5 4 4 4 4 4 4 4 4 4 4 4 4 4 4 4 4 4 5 5 5 5 5 4 4 4 5 5 5 4 4 4 4 4 4 4 4
11 11 11 11 11 11 12 13 13 12 12 12 13 12 11 10 10 11 12 11 9 6 5 5 5 5 5 5 4 4 4 4 4 4 4 4 4 4 4 4 4 4 4 4 5 5 5 5 5 5 5 4 4 5 5 4 4 4 4 4 4 4 4
11 11 11 12 12 12 12 13 13 12 12 13 13 13 12 11 11 11 12 11 10 8 6 5 5 5 5 5 5 4 4 4 4 4 4 4 4 4 4 4 4 4 4 4 4 4 5 5 5 5 5 5 5 5 5 4 4 4 4 4 4 4 4
11 12 12 12 12 12 12 13 14 13 12 13 13 13 13 12 11 12 12 12 10 8 7 6 5 5 5 5 5 5 5 4 4 4 4 4 4 4 4 4 4 4 4 4 4 4 4 4 5 5 5 5 5 5 5 5 5 4 4 4 5 5 4
11 12 12 12 12 12 12 13 14 13 13 13 14 14 14 13 12 12 12 12 11 9 7 6 6 5 5 5 5 5 5 5 5 5 5 5 5 5 4 4 4 5 4 4 4 4 4 4 4 4 4 5 5 5 5 5 5 5 5 4 4 4 4
11 12 12 12 13 13 13 13 14 14 13 13 14 14 14 14 13 13 13 12 11 9 8 7 6 6 5 5 5 5 5 5 5 4 5 5 5 5 5 4 5 5 5 4 4 4 4 4 4 4 4 4 4 5 5 6 6 5 5 4 4 4 4
11 12 13 13 13 13 13 13 14 14 14 13 14 15 15 15 14 14 15 14 12 10 8 7 7 6 6 5 5 5 5 5 5 5 5 5 5 5 5 5 5 5 4 4 4 4 4 4 4 4 4 4 5 5 5 5 6 5 5 4 4 4 4
11 12 13 13 13 13 13 13 14 15 14 14 14 15 15 15 15 15 15 15 13 10 8 7 7 6 6 5 5 5 5 5 5 5 4 5 5 5 6 6 5 5 4 4 5 4 4 4 4 4 4 4 4 5 5 5 5 5 5 5 5 4 4
11 12 13 14 13 13 13 13 14 14 15 14 14 15 15 16 16 15 16 16 14 11 8 7 7 7 6 6 5 5 5 5 5 5 5 5 5 5 6 6 5 5 5 5 5 4 4 4 4 4 4 4 4 4 5 5 5 5 5 5 5 5 5
11 12 13 14 14 13 13 14 14 14 15 15 15 15 15 16 16 16 17 18 16 12 9 8 7 7 7 6 5 5 5 5 5 5 5 5 5 5 6 5 6 6 5 5 5 5 5 4 4 4 4 4 5 4 5 5 5 5 5 5 5 5 5
11 12 13 15 15 14 14 14 14 14 15 15 15 15 16 16 17 17 18 19 17 13 9 8 8 7 7 6 6 6 5 5 5 5 5 5 5 5 6 6 5 5 6 6 5 5 5 4 4 5 4 4 5 4 5 5 5 5 5 5 5 5 5
11 12 13 15 15 15 14 14 14 15 15 15 16 16 16 17 17 17 18 20 19 15 10 8 8 8 8 7 6 6 6 6 6 5 5 5 5 5 6 6 6 5 6 6 6 5 5 5 4 5 5 5 5 5 5 5 5 5 5 5 5 5 5
11 12 13 15 15 15 15 14 15 15 15 15 15 16 16 17 17 18 18 21 22 18 12 9 8 8 8 7 7 6 6 6 6 6 6 6 5 5 6 6 6 6 6 6 7 6 6 5 5 5 5 5 5 5 5 5 5 5 5 5 5 5 5
11 12 13 15 16 16 15 15 15 15 16 16 15 15 16 17 18 18 18 21 24 21 14 10 8 8 8 8 7 7 6 6 6 6 6 6 6 6 6 6 6 6 6 6 6 7 7 6 5 5 5 5 5 5 5 5 5 5 5 5 6 6 6
12 12 13 15 15 16 16 16 16 16 16 16 16 16 16 17 18 19 18 21 25 23 17 12 9 9 9 8 8 7 7 7 6 6 6 6 6 6 6 6 6 6 7 6 7 7 8 7 7 6 5 5 5 5 5 5 5 5 5 5 6 6 6
12 12 14 15 15 16 16 17 16 16 16 17 17 16 16 17 18 19 19 20 25 25 20 13 10 10 9 9 9 8 7 7 7 6 6 6 6 6 6 6 6 7 7 7 7 7 8 8 8 7 6 5 5 5 5 5 5 5 5 5 6 6 6
12 12 14 15 16 16 17 18 18 17 16 17 17 17 17 17 18 19 19 20 24 27 23 16 11 11 10 10 10 9 8 8 7 7 7 6 6 7 6 6 6 7 7 7 7 8 9 9 9 8 8 7 6 5 5 6 6 5 5 6 6 6 6
12 12 13 15 16 17 17 19 19 18 17 17 18 18 18 18 19 20 19 19 23 27 26 19 13 12 12 11 11 10 9 8 8 7 7 7 6 7 7 7 7 7 7 7 7 7 8 9 10 10 9 8 7 6 6 6 6 6 6 6 6 6 6
11 12 13 15 16 17 18 19 20 20 19 18 18 19 19 19 20 20 20 19 22 27 28 22 14 12 13 13 12 11 10 9 9 8 8 7 7 7 7 7 7 7 7 8 8 8 8 8 10 10 11 10 9 8 7 6 6 6 6 6 6 6 6
11 12 13 15 17 18 19 20 21 21 21 20 20 20 20 20 21 21 20 19 21 25 28 25 17 12 13 15 14 13 11 10 9 9 8 8 8 8 8 8 7 7 7 8 8 8 8 8 9 10 10 11 11 10 9 8 7 6 7 6 6 6 6
11 12 13 15 18 19 20 21 21 22 22 22 22 22 22 22 22 22 21 20 21 24 28 27 20 13 12 14 16 15 13 11 10 10 9 9 8 8 8 8 8 8 7 7 8 9 9 8 8 8 9 11 12 12 12 11 9 7 7 7 7 6 6
12 13 14 16 19 20 21 22 22 22 23 23 24 25 24 24 24 24 23 21 22 25 28 29 24 16 12 12 15 16 15 13 11 11 10 9 9 9 8 8 8 8 8 8 7 8 9 9 8 8 8 9 11 12 13 13 12 10 8 7 7 7 6
12 13 15 17 20 21 22 22 22 23 23 25 27 26 26 25 25 25 24 23 24 27 30 31 27 19 13 12 14 17 18 16 13 12 11 10 9 9 9 9 9 9 8 8 8 8 9 9 9 9 8 8 9 11 12 13 14 13 11 9 8 7 7